To NAV CANADA Home Page Login to a new session Search on AWWS site Feedback and Comments Disclaimer Vers la page française équivalente Tips FAQ What's new on the site To the Forecasts and Observations / NOTAM section To "File a Flight Plan" website Publications and other links Update of the User's profile FIC Telephone Numbers My Weather Data Folder Route Weather Data Regional Weather Data Local Weather Data To the Forecasts and Observations / NOTAM section
Request Generated 07/05/2015 at 17:29:23 UTC . Weather information available at that time is displayed.

METAR/TAF

KANGIQSUJUAQ/KANGIQSUJUAQ (WAKEHAM BAY)/QC    

METAR CYKG 051700Z 00000KT 7SM OVC011 05/04 A3002 RMK SC8 SLP178=
METAR CYKG 051600Z 27005KT 2SM BR BKN011 04/04 A3002 RMK FG2ST6 SLP176=
METAR CYKG 051500Z 36010KT 5SM BR SCT007 BKN030 05/04 A3002 RMK ST4SC3 OBS TAKEN +10 SLP177=

CYKG - No TAF is issued for this station

Your time UTC time
Weather data provided by Environment Canada and NAV CANADA